Weather in Pazar

Turkey     41°10′48″N   40°53′03″E
temp.,
°C
wind,
m/s
gust,
m/s
humid.,
%
clouds,
%
prec.,
mm/h
press.,
hPa
HPBL,
m
12 may, wed
wed1200:00+12ene22600 0.0 1018294
03:00+11ene22580 0.0 1016276
06:00+12ese11530 0.0 1015164
09:00+13nne22540 0.0 1014215
12:00+13nne11610 0.0 1014229
15:00+14ene11611 0.0 1013149
18:00+15nnw116156 0.0 1012136
21:00+15ne22670 0.0 101291
13 may, thu
thu1300:00+14ne11710 0.0 101288
03:00+14ne22700 0.0 1011105
06:00+15ene22691 0.0 101040
09:00+17n33690 0.0 101075
12:00+18ne11697 0.0 1009119
15:00+20ene11590 0.0 100893
18:00+20w33653 0.0 100857
21:00+18sw22660 0.0 100920
14 may, fri
fri1400:00+18w23611 0.0 101022
03:00+17wsw22655 0.0 100920
06:00+17sw11670 0.0 101018
09:00+19nw22650 0.0 101056
12:00+19ene01640 0.0 1010114
15:00+22nnw11540 0.0 1009120
18:00+19wsw45710 0.0 1011103
21:00+16sw44770 0.0 101360
15 may, sat
sat1500:00+16wsw33740 0.0 101341
03:00+16wsw34747 0.0 101379
06:00+16sw3477100 0.0 101483
09:00+16w2375100 0.0 1014137
12:00+17wnw237350 0.0 1014198
15:00+17w12730 0.0 1013188
18:00+17wsw22691 0.0 101270
21:00+16sw1273100 0.0 101211
16 may, sun
sun1600:00+16sw1172100 0.0 101038
03:00+16ene1171100 0.0 100811
06:00+17ne126790 0.0 100646
09:00+17nne337312 0.0 100483
12:00+18nw117318 0.1 1002112
15:00+20w1266100 1.8 1000170
18:00+23se81061100 1.4 99979
21:00+20s226882 1.4 100028